Wind_Speed
3 2 2 2 2 2 2 1 1 2 3 4 4 4 4 5 5 6 6 7 7 8 8 8 9 9 9 9 10 10 10 10 10 11 11 11 12 12 12 13 13 13 14 14 14 15 15 16 17
3 2 2 2 2 2 2 1 1 1 2 3 3 3 4 4 5 5 5 6 7 7 7 8 8 8 8 8 9 9 9 10 10 10 11 11 11 11 12 12 13 13 14 14 14 15 15 16 17
2 2 2 2 2 2 1 1 1 1 2 2 2 3 3 4 4 5 5 6 6 7 7 7 7 7 8 8 9 9 9 10 10 10 11 11 11 12 12 13 14 14 14 15 15 16 16 17 17
3 2 2 1 1 1 1 0 1 1 2 2 2 2 2 3 3 4 4 4 5 6 6 6 7 7 8 8 9 9 10 10 11 11 12 12 13 13 14 15 15 16 16 16 17 17 18 18 19
4 3 3 2 2 1 1 1 2 2 2 3 3 3 3 3 3 4 4 4 4 5 6 6 7 8 8 9 9 10 11 11 12 13 13 14 15 15 16 17 17 18 18 19 19 19 20 20 21
6 5 4 4 3 3 3 3 4 4 4 4 4 5 5 5 5 6 6 6 6 6 7 8 8 9 10 11 11 12 12 13 14 15 16 16 17 18 18 19 19 20 20 21 21 22 22 23 23
8 7 6 6 6 6 6 6 6 6 6 6 7 7 7 7 8 8 8 9 9 9 9 10 10 11 11 12 13 13 14 15 16 17 18 18 19 20 20 21 22 22 23 23 24 24 25 25 26
11 10 9 8 8 8 8 8 7 7 8 8 9 9 9 10 10 11 11 11 11 11 11 12 12 13 13 14 15 15 16 17 18 19 19 20 21 22 22 23 24 25 25 26 26 27 27 28 28
14 13 11 10 10 10 10 9 9 9 9 10 10 11 11 12 12 13 13 13 13 13 13 14 14 15 16 16 17 17 18 19 19 20 21 21 22 23 24 25 26 27 27 28 28 29 29 30 30
16 15 14 13 13 12 12 12 11 11 11 12 12 12 13 13 14 14 15 15 15 16 16 16 17 17 18 18 19 19 20 20 21 21 22 23 24 25 26 26 27 28 29 29 30 30 31 31 32
18 17 17 16 15 15 15 14 14 14 14 14 14 14 15 15 16 16 17 17 18 18 18 19 19 19 19 20 20 21 21 22 22 23 24 24 25 26 27 27 28 29 29 30 30 31 31 32 32
20 20 20 19 19 18 17 17 17 17 17 17 17 17 17 17 18 18 19 19 20 20 20 21 21 21 21 22 22 22 23 23 24 24 25 26 27 27 28 29 29 30 30 31 31 32 32 33 33
23 22 22 22 22 20 20 20 20 20 20 20 20 19 19 19 20 20 21 21 22 23 23 23 23 23 23 23 23 23 24 24 25 25 26 26 27 28 29 29 30 30 31 31 32 32 33 34 34
26 25 25 24 24 23 23 22 22 22 22 22 22 22 22 22 22 22 22 23 24 24 25 25 24 24 25 25 25 25 25 26 26 26 26 28 29 29 30 30 31 31 31 32 32 33 34 35 35
27 27 27 27 27 27 26 24 24 24 24 24 24 24 24 24 24 25 25 25 25 26 26 26 26 26 26 26 26 26 26 27 27 27 28 29 30 30 31 31 31 31 32 33 33 34 35 35 36
29 28 28 29 29 29 28 26 27 26 26 26 26 26 27 26 26 27 27 27 27 27 27 27 27 27 27 27 27 27 27 28 28 29 29 30 30 30 31 31 32 32 33 34 34 35 36 37 37
30 30 29 30 31 31 30 27 29 28 27 27 28 28 29 28 28 28 28 28 28 28 28 28 28 28 28 28 28 28 28 29 30 30 30 30 30 31 31 32 33 33 34 35 35 36 37 38 39
31 32 31 31 32 32 31 29 30 31 30 29 29 29 30 30 29 30 29 29 29 29 29 29 29 29 29 29 29 29 30 30 30 30 30 31 31 32 32 33 34 34 35 36 37 38 39 40 40
33 33 32 31 34 34 32 30 30 32 31 30 30 30 30 30 30 30 30 29 30 30 30 29 30 30 30 30 30 31 31 31 31 31 31 32 32 33 34 34 35 36 37 38 39 40 41 41 42
33 32 32 32 35 36 33 30 29 31 32 31 30 30 31 31 31 30 30 30 30 30 31 31 31 31 31 31 31 31 31 31 31 32 32 32 33 34 35 36 37 38 39 40 40 41 42 43 44
33 33 33 34 35 36 36 31 28 30 32 31 30 30 31 31 31 31 31 31 31 31 31 31 31 32 32 32 32 32 32 32 32 32 33 34 35 35 36 37 38 39 40 41 42 43 44 44 46
33 33 35 35 35 35 35 34 25 29 30 31 31 31 31 31 31 31 31 31 31 31 31 32 32 32 32 32 32 32 32 33 33 34 34 35 36 37 38 39 40 41 42 43 44 45 45 46 47
35 35 36 35 35 35 33 36 26 27 29 30 31 31 31 31 30 30 30 31 31 31 32 32 32 33 33 32 33 33 33 33 34 35 36 37 38 39 40 41 42 43 44 45 46 46 47 48 48
36 36 37 37 36 35 32 35 31 27 28 29 31 31 31 31 30 30 30 31 31 32 32 33 33 33 33 33 33 33 33 34 35 36 37 38 39 41 42 43 44 45 46 47 47 48 49 49 50
35 35 37 37 37 36 34 34 32 28 28 29 30 31 30 30 30 29 30 30 31 31 32 33 33 33 33 33 33 34 34 35 36 37 38 40 41 43 44 45 46 47 48 48 49 49 50 51 52
35 36 37 38 38 37 36 35 30 29 29 29 30 30 30 30 29 29 29 30 31 31 32 33 33 33 33 33 34 35 36 37 38 39 40 42 43 45 46 47 48 48 49 49 50 51 51 52 53
35 36 36 39 40 39 37 34 29 28 28 29 29 29 30 29 29 29 29 30 31 32 33 33 33 34 34 34 35 36 37 38 40 41 42 44 45 46 47 48 49 49 50 51 51 52 53 54 54
36 36 37 39 41 41 38 34 30 27 28 28 29 29 29 29 29 29 29 31 32 32 33 33 34 34 35 35 36 38 39 40 42 43 44 45 47 47 48 49 50 51 51 52 53 54 54 55 56
36 37 37 38 40 40 39 34 30 28 28 28 29 29 29 29 29 29 30 31 32 32 33 34 34 35 36 37 38 39 41 42 43 44 46 47 48 49 49 50 51 52 53 54 54 55 56 56 57
37 37 36 38 38 39 40 35 29 28 28 29 29 30 30 30 30 30 31 31 32 32 33 34 35 36 37 38 39 41 42 43 45 46 48 49 49 50 51 52 53 54 54 55 56 56 57 58 59
Wind_Direction
26 33 43 55 71 79 88 107 160 177 182 192 205 219 232 238 245 247 253 257 262 264 264 266 267 268 271 273 274 275 277 278 279 280 281 282 283 283 284 284 284 285 285 285 284 284 283 282 281
18 28 40 51 54 63 75 80 139 167 168 183 205 221 234 245 253 253 257 264 267 268 270 271 271 271 272 274 276 279 280 281 282 284 285 285 286 287 287 288 288 288 289 288 288 287 286 285 284
356 7 27 42 45 53 65 91 160 183 175 180 211 235 248 254 255 257 260 265 268 272 275 276 275 276 275 277 279 282 284 284 285 287 287 287 288 289 289 290 290 289 289 289 289 288 287 286 285
307 316 327 352 360 21 23 12 257 220 210 219 237 254 257 265 267 267 266 270 273 275 277 278 278 280 281 282 282 284 287 288 289 290 290 289 290 290 291 290 290 289 289 288 288 288 287 287 286
281 283 287 288 291 316 317 286 275 256 242 242 254 267 272 279 280 281 282 283 282 281 282 282 281 282 283 283 285 286 288 289 289 290 290 290 290 290 290 289 289 289 288 288 287 287 287 287 286
268 270 268 270 271 272 270 269 267 265 257 252 255 263 269 274 279 283 283 282 282 282 284 285 285 285 285 286 286 287 288 288 289 289 289 290 290 290 290 289 289 288 288 288 287 286 286 286 285
261 262 263 265 265 264 264 267 267 265 262 258 259 262 265 270 275 278 280 282 282 281 281 283 284 285 286 287 288 289 289 289 290 290 290 290 290 290 290 289 289 288 288 287 287 286 285 285 284
257 258 258 260 261 261 264 265 267 267 265 264 263 264 266 269 273 275 278 280 282 282 281 282 283 285 286 287 288 289 290 290 290 291 291 291 291 291 290 290 289 289 288 288 287 286 285 284 283
253 254 255 256 259 261 264 264 266 270 270 268 267 266 267 268 272 276 279 280 282 282 282 283 284 285 286 287 288 289 290 290 290 290 290 290 291 290 290 290 290 289 289 288 287 286 285 285 284
251 252 254 255 258 261 263 265 267 269 271 272 271 270 269 270 272 275 278 280 281 282 283 284 284 285 286 287 288 289 289 290 290 291 291 291 291 291 291 291 290 290 290 289 288 288 287 286 285
250 251 253 254 256 260 263 266 269 270 270 271 272 272 272 272 273 274 276 279 281 282 283 284 284 285 286 287 287 288 288 289 290 290 290 291 292 292 292 292 292 292 291 291 290 289 289 288 287
249 251 253 255 256 258 262 265 269 271 271 271 271 272 273 273 274 275 276 278 281 282 283 283 284 285 285 286 287 287 288 289 290 290 290 291 292 293 293 293 293 293 292 292 291 290 290 289 288
249 252 254 256 258 259 262 265 267 270 271 271 272 272 274 275 275 276 277 278 279 281 282 283 283 284 285 286 286 287 288 289 289 290 291 291 293 293 294 294 294 294 293 293 292 292 291 290 290
250 253 255 257 259 261 263 265 267 268 269 270 271 272 273 275 276 276 278 278 279 280 281 282 282 283 284 285 286 286 287 289 289 290 290 291 292 293 293 293 294 294 294 293 293 293 293 292 291
250 252 256 258 260 262 264 266 267 267 269 270 272 273 273 274 276 277 277 278 279 280 280 281 282 282 283 284 285 286 288 289 289 290 290 291 292 292 293 293 293 293 293 294 294 294 293 293 292
252 254 256 259 261 262 263 265 267 267 268 270 271 273 274 275 276 277 277 277 278 279 280 280 281 282 283 284 285 286 287 288 289 289 289 290 291 292 292 292 292 293 292 292 293 293 292 292 292
252 255 256 259 261 262 263 264 266 267 267 270 272 273 273 274 276 277 277 278 278 278 279 280 281 281 282 284 285 285 286 287 288 289 289 289 291 291 292 292 292 292 292 292 292 292 291 291 291
253 254 255 258 261 262 263 263 264 267 268 270 272 273 273 274 275 276 277 278 278 279 279 279 280 281 281 283 284 284 286 287 287 288 288 289 290 291 291 292 292 292 292 292 292 292 291 291 290
253 255 257 259 261 262 262 262 263 266 269 270 271 272 272 273 275 276 277 278 279 279 278 278 279 280 281 282 283 284 285 286 286 287 288 290 291 292 292 293 293 293 293 293 293 293 292 292 291
255 257 259 260 262 263 262 262 263 266 268 270 271 271 272 273 274 274 276 278 278 277 277 277 278 279 280 281 282 283 284 285 286 287 289 290 292 293 293 294 294 294 294 294 294 293 293 293 292
257 260 260 261 261 265 266 263 263 265 269 270 270 270 270 272 273 274 276 276 276 276 277 277 277 278 279 280 281 283 284 285 287 288 290 291 292 293 294 294 295 295 295 295 295 295 295 295 294
258 260 262 262 263 265 268 268 259 263 267 269 270 270 270 271 273 274 274 275 276 276 276 277 277 278 279 280 281 283 285 286 288 289 291 292 293 294 295 295 296 297 297 297 297 296 296 296 295
258 259 262 264 265 266 267 271 264 263 266 269 270 270 270 271 272 272 273 275 275 275 275 276 277 277 279 280 281 283 285 286 288 290 292 293 294 295 296 297 298 298 298 298 298 298 297 297 296
258 260 262 263 265 267 268 271 271 268 268 269 270 270 271 271 271 272 273 274 274 274 274 275 276 277 278 280 281 283 285 287 289 291 293 294 295 296 297 298 298 298 299 299 299 299 298 298 298
258 260 262 264 265 268 269 270 273 274 272 270 269 269 270 271 271 272 273 273 273 273 274 275 276 277 278 280 282 284 286 288 291 293 294 295 296 297 298 298 299 299 300 300 300 300 300 299 299
255 257 261 265 267 268 269 271 274 276 274 271 270 269 270 270 271 272 272 272 273 273 274 275 276 277 279 280 283 285 287 290 292 293 295 296 297 298 299 299 300 300 301 301 301 301 300 300 299
253 256 260 265 268 270 271 273 274 275 273 271 271 270 270 270 270 271 271 272 272 273 274 275 276 278 280 282 284 286 288 291 293 294 296 297 298 299 299 300 300 301 301 301 301 301 300 300 299
253 255 258 262 267 271 273 274 277 274 271 271 271 271 270 269 269 270 270 271 272 273 274 276 277 279 281 283 285 287 290 292 294 295 296 297 298 299 300 300 301 301 301 301 301 301 301 300 300
252 254 257 261 266 271 274 274 276 276 272 270 270 269 269 269 269 269 271 271 272 274 275 277 278 280 282 284 286 289 291 293 294 295 297 298 299 300 300 301 301 301 302 302 302 302 301 301 300
250 253 257 261 266 269 272 273 276 275 272 271 269 267 267 268 269 269 271 272 273 275 277 278 279 281 283 285 288 290 292 293 295 296 298 299 299 300 301 301 301 302 302 302 302 302 302 302 301
Height
5864 5864 5865 5866 5867 5867 5867 5868 5868 5868 5868 5869 5870 5870 5871 5872 5874 5876 5874 5873 5874 5874 5874 5874 5874 5874 5874 5874 5873 5873 5873 5873 5872 5872 5872 5871 5871 5871 5870 5870 5870 5869 5869 5869 5868 5868 5868 5867 5867
5865 5865 5867 5867 5867 5867 5868 5868 5868 5868 5869 5869 5869 5870 5871 5871 5872 5872 5872 5872 5872 5872 5872 5872 5872 5872 5872 5872 5872 5872 5871 5871 5871 5870 5870 5869 5869 5868 5868 5868 5867 5867 5867 5866 5866 5866 5865 5865 5864
5865 5866 5867 5867 5867 5868 5868 5868 5869 5869 5869 5869 5869 5869 5870 5871 5871 5871 5871 5871 5871 5871 5871 5871 5871 5871 5871 5871 5870 5870 5870 5869 5869 5868 5868 5868 5867 5866 5866 5865 5865 5865 5864 5864 5863 5863 5863 5862 5862
5865 5866 5867 5867 5867 5867 5868 5868 5869 5869 5869 5869 5869 5869 5869 5870 5870 5870 5870 5870 5870 5870 5870 5870 5870 5870 5869 5869 5869 5868 5868 5867 5867 5866 5866 5865 5865 5864 5864 5863 5863 5862 5862 5861 5861 5860 5860 5859 5859
5865 5866 5867 5867 5867 5867 5867 5868 5869 5869 5869 5869 5869 5869 5869 5869 5869 5869 5869 5870 5869 5869 5869 5869 5869 5868 5868 5867 5867 5866 5866 5865 5865 5864 5863 5863 5862 5862 5861 5860 5860 5859 5859 5858 5858 5857 5857 5856 5856
5865 5865 5866 5866 5866 5867 5867 5868 5868 5869 5869 5869 5869 5869 5869 5869 5868 5869 5869 5869 5869 5868 5868 5868 5867 5867 5866 5866 5865 5864 5864 5863 5862 5861 5861 5860 5859 5859 5858 5857 5857 5856 5855 5855 5854 5853 5853 5852 5852
5864 5864 5865 5865 5865 5866 5866 5867 5867 5868 5868 5868 5868 5868 5868 5868 5867 5867 5867 5867 5867 5867 5867 5866 5866 5865 5864 5864 5863 5862 5861 5860 5859 5859 5858 5857 5856 5855 5855 5854 5853 5852 5851 5851 5850 5849 5848 5848 5847
5861 5863 5863 5863 5864 5864 5865 5865 5866 5866 5867 5867 5867 5867 5867 5867 5866 5866 5865 5865 5865 5865 5865 5864 5864 5863 5862 5861 5860 5859 5858 5857 5856 5855 5854 5853 5852 5852 5851 5850 5849 5848 5847 5846 5845 5844 5844 5843 5842
5859 5861 5861 5861 5862 5862 5863 5863 5864 5864 5865 5865 5865 5865 5865 5865 5864 5864 5863 5863 5863 5862 5862 5861 5861 5860 5859 5858 5857 5856 5855 5854 5853 5852 5851 5849 5848 5847 5846 5845 5844 5843 5842 5841 5840 5839 5838 5837 5836
5856 5857 5858 5859 5859 5860 5860 5861 5861 5862 5862 5863 5863 5863 5863 5863 5862 5862 5861 5860 5860 5860 5859 5858 5858 5857 5856 5855 5854 5852 5851 5850 5849 5848 5846 5845 5844 5843 5841 5840 5839 5838 5836 5835 5834 5833 5832 5831 5830
5852 5854 5854 5855 5856 5857 5857 5858 5859 5859 5860 5860 5860 5860 5860 5860 5860 5859 5858 5857 5857 5856 5856 5855 5854 5853 5852 5851 5850 5849 5847 5846 5845 5843 5842 5841 5839 5838 5836 5835 5834 5832 5831 5829 5828 5827 5825 5824 5823
5848 5849 5850 5851 5852 5853 5854 5855 5856 5856 5857 5856 5856 5856 5857 5856 5856 5856 5855 5854 5853 5853 5852 5851 5850 5849 5848 5847 5846 5844 5843 5842 5840 5839 5837 5836 5834 5833 5831 5830 5828 5827 5825 5823 5822 5821 5819 5818 5816
5844 5845 5846 5847 5848 5849 5850 5851 5852 5852 5852 5852 5852 5853 5853 5852 5852 5852 5851 5850 5849 5848 5848 5847 5846 5845 5844 5842 5841 5840 5838 5837 5835 5834 5832 5831 5829 5827 5826 5824 5822 5821 5819 5817 5816 5814 5812 5811 5809
5839 5841 5842 5843 5843 5845 5846 5847 5847 5848 5848 5848 5848 5848 5848 5848 5848 5847 5847 5846 5845 5844 5843 5842 5841 5840 5839 5838 5836 5835 5833 5832 5830 5829 5827 5825 5824 5822 5820 5818 5816 5814 5813 5811 5809 5807 5805 5804 5802
5834 5836 5837 5838 5838 5840 5841 5843 5843 5843 5843 5843 5843 5843 5843 5843 5842 5842 5842 5841 5840 5839 5838 5837 5836 5835 5833 5832 5831 5829 5828 5826 5825 5823 5822 5820 5818 5816 5814 5812 5810 5808 5806 5804 5802 5800 5798 5796 5795
5828 5831 5832 5833 5833 5834 5837 5838 5837 5837 5837 5838 5838 5838 5837 5837 5837 5836 5836 5835 5835 5833 5832 5831 5830 5829 5828 5826 5825 5823 5822 5821 5819 5817 5816 5814 5812 5810 5808 5806 5804 5802 5800 5798 5796 5794 5791 5789 5787
5823 5825 5826 5827 5827 5827 5829 5832 5831 5831 5832 5832 5832 5832 5831 5831 5831 5830 5830 5829 5828 5828 5826 5825 5824 5823 5822 5820 5819 5817 5816 5815 5813 5811 5810 5808 5806 5804 5802 5799 5797 5795 5793 5791 5789 5786 5784 5782 5779
5817 5818 5819 5820 5820 5821 5822 5825 5825 5824 5825 5826 5826 5826 5825 5825 5824 5824 5823 5823 5822 5821 5820 5819 5818 5817 5816 5814 5813 5812 5810 5808 5807 5805 5803 5801 5799 5797 5795 5793 5790 5788 5786 5783 5781 5778 5776 5773 5771
5809 5811 5813 5814 5813 5814 5816 5818 5820 5818 5819 5819 5819 5819 5819 5818 5818 5817 5817 5816 5816 5815 5814 5813 5812 5811 5810 5808 5807 5805 5804 5802 5801 5799 5797 5795 5793 5790 5788 5785 5783 5780 5778 5775 5772 5770 5767 5764 5762
5803 5805 5806 5807 5806 5806 5809 5812 5813 5812 5812 5813 5813 5812 5812 5812 5811 5811 5810 5810 5809 5808 5808 5807 5806 5804 5803 5802 5801 5799 5797 5796 5794 5792 5790 5788 5785 5783 5781 5778 5775 5772 5769 5766 5764 5761 5757 5754 5751
5797 5798 5799 5800 5800 5799 5801 5806 5808 5807 5805 5806 5806 5805 5805 5805 5805 5804 5804 5803 5803 5802 5801 5800 5799 5798 5797 5795 5794 5792 5791 5789 5787 5785 5783 5781 5778 5776 5773 5770 5767 5764 5761 5757 5754 5751 5747 5744 5741
5790 5791 5791 5792 5793 5794 5795 5795 5803 5800 5799 5799 5799 5799 5798 5798 5798 5797 5797 5796 5796 5795 5794 5793 5792 5791 5790 5788 5787 5786 5784 5782 5780 5778 5776 5773 5770 5768 5765 5762 5758 5755 5751 5748 5744 5740 5737 5733 5730
5783 5784 5785 5785 5785 5787 5789 5787 5795 5795 5794 5792 5792 5791 5791 5791 5791 5791 5790 5790 5789 5788 5787 5786 5785 5784 5783 5782 5780 5779 5777 5775 5773 5770 5768 5765 5762 5759 5756 5753 5749 5745 5742 5738 5734 5730 5726 5722 5718
5776 5778 5778 5778 5779 5781 5784 5781 5785 5788 5787 5786 5785 5784 5784 5784 5784 5784 5783 5783 5782 5781 5780 5779 5778 5777 5776 5775 5773 5771 5770 5768 5765 5763 5760 5757 5754 5750 5747 5743 5739 5735 5731 5727 5723 5719 5715 5710 5706
5770 5771 5771 5771 5772 5774 5776 5775 5778 5780 5779 5778 5778 5777 5777 5777 5777 5777 5776 5776 5775 5774 5773 5772 5771 5770 5769 5767 5766 5764 5762 5760 5757 5755 5752 5748 5745 5741 5737 5733 5729 5725 5721 5716 5712 5707 5703 5698 5694
5763 5764 5765 5765 5765 5766 5767 5768 5773 5773 5772 5771 5770 5770 5770 5770 5770 5770 5769 5769 5768 5767 5766 5765 5764 5763 5761 5760 5758 5757 5754 5752 5749 5746 5743 5739 5736 5732 5728 5723 5719 5714 5710 5705 5700 5696 5691 5686 5681
5756 5757 5758 5757 5756 5757 5759 5762 5766 5766 5764 5763 5763 5763 5763 5763 5763 5763 5762 5762 5761 5760 5759 5758 5757 5755 5754 5752 5751 5749 5746 5743 5740 5737 5734 5730 5726 5722 5717 5713 5708 5703 5699 5694 5689 5684 5679 5674 5668
5749 5750 5751 5750 5749 5749 5751 5754 5758 5758 5757 5757 5756 5756 5755 5756 5756 5755 5755 5754 5754 5753 5752 5751 5749 5748 5746 5744 5742 5740 5737 5734 5731 5728 5724 5720 5716 5711 5707 5702 5697 5692 5687 5682 5677 5671 5666 5661 5655
5742 5743 5743 5743 5743 5743 5743 5749 5750 5750 5750 5749 5749 5748 5748 5748 5748 5748 5747 5747 5746 5745 5744 5743 5741 5740 5738 5736 5734 5731 5728 5725 5721 5718 5713 5709 5705 5700 5695 5690 5685 5680 5675 5669 5664 5658 5653 5647 5641
5733 5735 5736 5736 5737 5736 5735 5742 5744 5743 5742 5741 5741 5741 5741 5741 5741 5740 5740 5739 5738 5737 5736 5735 5733 5732 5730 5727 5725 5722 5719 5715 5711 5707 5703 5698 5694 5689 5683 5678 5673 5668 5662 5656 5651 5645 5639 5633 5627